| time (UTC) | temp C | wind direction | speed KPH | gust KPH | rain 1hr cm | rain 24hr cm | rain mn cm | humidity % | barometer mb |
| 20260510063036 | 9 | 0.0 | 3.2 | 0.00 | 1.09 | 0.00 | 95 | 1008.6 | |
| 20260510061536 | 9 | 0.0 | 3.2 | 0.00 | 1.09 | 0.00 | 90 | 1008.6 | |
| 20260510060016 | 9 | 0.0 | 4.8 | 0.00 | 1.09 | 0.00 | 95 | 1008.8 | |
| 20260510054516 | 8 | 0.0 | 1.6 | 0.00 | 1.09 | 0.00 | 95 | 1008.8 | |
| 20260510053016 | 8 | 315 | 1.6 | 4.8 | 0.00 | 1.09 | 0.00 | 95 | 1008.7 |
| 20260510051516 | 9 | 0.0 | 3.2 | 0.00 | 1.09 | 0.00 | 95 | 1008.8 | |
| 20260510050016 | 9 | 0 | 1.6 | 3.2 | 0.00 | 1.09 | 0.00 | 95 | 1008.5 |
| 20260510044516 | 9 | 315 | 1.6 | 4.8 | 0.00 | 1.09 | 0.00 | 95 | 1008.4 |
| 20260510043016 | 9 | 45 | 1.6 | 8.0 | 0.00 | 1.09 | 0.00 | 95 | 1008.4 |
| 20260510041516 | 9 | 0.0 | 4.8 | 0.00 | 1.09 | 0.00 | 95 | 1008.5 | |
| 20260510040016 | 9 | 23 | 1.6 | 8.0 | 0.00 | 1.09 | 0.00 | 95 | 1008.3 |
| 20260510034536 | 9 | 0.0 | 3.2 | 0.00 | 1.09 | 0.00 | 95 | 1008.1 | |
| 20260510033016 | 10 | 0.0 | 3.2 | 0.00 | 1.09 | 0.00 | 95 | 1008.4 | |
| 20260510031516 | 10 | 0.0 | 1.6 | 0.00 | 1.09 | 0.00 | 95 | 1008.4 | |
| 20260510030016 | 10 | 0.0 | 1.6 | 0.00 | 1.09 | 0.00 | 95 | 1008.5 | |
| 20260510024516 | 10 | 0.0 | 1.6 | 0.00 | 1.09 | 0.00 | 95 | 1008.7 | |
| 20260510023016 | 10 | 0.0 | 3.2 | 0.00 | 1.09 | 0.00 | 95 | 1008.9 | |
| 20260510021516 | 9 | 0.0 | 1.6 | 0.00 | 1.09 | 0.00 | 95 | 1008.6 | |
| 20260510020015 | 9 | 0.0 | 3.2 | 0.00 | 1.09 | 0.00 | 95 | 1008.5 | |
| 20260510014516 | 9 | 0.0 | 1.6 | 0.00 | 1.09 | 0.00 | 95 | 1008.4 | |
| 20260510013016 | 9 | 113 | 1.6 | 4.8 | 0.00 | 1.09 | 0.00 | 94 | 1008.3 |
| 20260510011516 | 10 | 0.0 | 4.8 | 0.00 | 1.09 | 0.00 | 95 | 1008.2 | |
| 20260510010015 | 10 | 0.0 | 1.6 | 0.00 | 1.09 | 0.00 | 95 | 1008.5 | |
| 20260510004515 | 10 | 0.0 | 1.6 | 0.00 | 1.09 | 0.00 | 95 | 1008.5 | |
| 20260510003015 | 10 | 0.0 | 1.6 | 0.00 | 1.09 | 0.00 | 94 | 1008.6 | |
| 20260510001536 | 10 | 0.0 | 1.6 | 0.00 | 1.09 | 0.00 | 95 | 1009.0 | |
| 20260510000015 | 10 | 0.0 | 1.6 | 0.00 | 1.09 | 1.09 | 94 | 1009.0 | |
| 20260509234516 | 10 | 0.0 | 1.6 | 0.00 | 1.09 | 1.09 | 94 | 1009.1 | |
| 20260509233015 | 10 | 0.0 | 1.6 | 0.00 | 1.09 | 1.09 | 94 | 1009.1 | |
| 20260509231516 | 10 | 0.0 | 1.6 | 0.00 | 1.09 | 1.09 | 94 | 1009.3 | |
| 20260509230015 | 10 | 0.0 | 1.6 | 0.00 | 1.09 | 1.09 | 94 | 1009.5 | |
| 20260509224517 | 10 | 0.0 | 1.6 | 0.00 | 1.09 | 1.09 | 94 | 1009.6 | |
| 20260509223037 | 10 | 0.0 | 1.6 | 0.00 | 1.09 | 1.09 | 93 | 1009.6 | |
| 20260509221517 | 10 | 0.0 | 1.6 | 0.00 | 1.09 | 1.09 | 93 | 1009.5 | |
| 20260509220017 | 10 | 0.0 | 1.6 | 0.03 | 1.09 | 1.09 | 93 | 1009.6 | |
| 20260509214517 | 10 | 0.0 | 1.6 | 0.03 | 1.09 | 1.09 | 93 | 1009.4 | |
| 20260509213018 | 10 | 0.0 | 1.6 | 0.03 | 1.09 | 1.09 | 93 | 1009.5 | |
| 20260509211517 | 10 | 0.0 | 1.6 | 0.03 | 1.09 | 1.09 | 93 | 1009.4 | |
| 20260509210017 | 10 | 0.0 | 3.2 | 0.00 | 1.07 | 1.07 | 92 | 1009.5 | |
| 20260509204517 | 10 | 0.0 | 1.6 | 0.00 | 1.07 | 1.07 | 92 | 1009.4 | |
| 20260509203037 | 10 | 0.0 | 1.6 | 0.03 | 1.07 | 1.07 | 92 | 1009.4 | |
| 20260509201557 | 10 | 0.0 | 1.6 | 0.08 | 1.07 | 1.07 | 92 | 1009.2 | |
| 20260509200017 | 10 | 0.0 | 3.2 | 0.10 | 1.07 | 1.07 | 92 | 1009.2 | |
| 20260509194517 | 10 | 0.0 | 4.8 | 0.13 | 1.07 | 1.07 | 92 | 1008.9 | |
| 20260509193017 | 10 | 225 | 1.6 | 4.8 | 0.13 | 1.04 | 1.04 | 91 | 1008.6 |
| 20260509191517 | 10 | 203 | 1.6 | 4.8 | 0.15 | 0.99 | 0.99 | 91 | 1008.5 |
| 20260509190017 | 11 | 203 | 1.6 | 4.8 | 0.20 | 0.97 | 0.97 | 90 | 1008.6 |
| 20260509184517 | 11 | 0.0 | 3.2 | 0.25 | 0.94 | 0.94 | 90 | 1008.3 | |
| 20260509183017 | 11 | 45 | 1.6 | 4.8 | 0.30 | 0.91 | 0.91 | 89 | 1008.3 |
| 20260509181517 | 11 | 45 | 1.6 | 4.8 | 0.36 | 0.84 | 0.84 | 89 | 1008.7 |
| 20260509180017 | 11 | 23 | 1.6 | 4.8 | 0.41 | 0.76 | 0.76 | 88 | 1009.1 |
| 20260509174516 | 11 | 23 | 3.2 | 8.0 | 0.53 | 0.69 | 0.69 | 87 | 1009.3 |
| 20260509173016 | 11 | 23 | 4.8 | 9.7 | 0.53 | 0.61 | 0.61 | 85 | 1009.4 |
| 20260509171517 | 11 | 45 | 6.4 | 16.1 | 0.48 | 0.48 | 0.48 | 83 | 1009.8 |
| 20260509170016 | 11 | 45 | 6.4 | 17.7 | 0.36 | 0.36 | 0.36 | 82 | 1009.6 |
| 20260509164517 | 12 | 23 | 4.8 | 9.7 | 0.15 | 0.15 | 0.15 | 79 | 1009.5 |
| 20260509163016 | 13 | 23 | 6.4 | 12.9 | 0.08 | 0.08 | 0.08 | 75 | 1009.7 |
| 20260509161516 | 13 | 45 | 8.0 | 12.9 | 0.00 | 0.00 | 0.00 | 71 | 1009.6 |
| 20260509160017 | 13 | 23 | 8.0 | 12.9 | 0.00 | 0.00 | 0.00 | 70 | 1009.0 |
| 20260509154536 | 13 | 45 | 8.0 | 16.1 | 0.00 | 0.00 | 0.00 | 70 | 1008.4 |
| 20260509153016 | 13 | 45 | 11.3 | 20.9 | 0.00 | 0.00 | 0.00 | 69 | 1008.1 |
| 20260509151516 | 13 | 45 | 9.7 | 16.1 | 0.00 | 0.00 | 0.00 | 68 | 1008.1 |
| 20260509150016 | 13 | 45 | 9.7 | 19.3 | 0.00 | 0.00 | 0.00 | 67 | 1008.4 |
| 20260509144517 | 14 | 45 | 4.8 | 12.9 | 0.00 | 0.00 | 0.00 | 66 | 1008.9 |
| 20260509143016 | 14 | 68 | 3.2 | 9.7 | 0.00 | 0.00 | 0.00 | 65 | 1009.2 |
| 20260509141516 | 14 | 45 | 3.2 | 9.7 | 0.00 | 0.00 | 0.00 | 62 | 1009.5 |
| 20260509140016 | 14 | 113 | 4.8 | 12.9 | 0.00 | 0.00 | 0.00 | 62 | 1009.5 |
| 20260509134516 | 14 | 158 | 4.8 | 19.3 | 0.00 | 0.00 | 0.00 | 62 | 1009.8 |
| 20260509133016 | 14 | 45 | 8.0 | 19.3 | 0.00 | 0.00 | 0.00 | 64 | 1009.7 |
| 20260509131516 | 14 | 45 | 11.3 | 22.5 | 0.00 | 0.00 | 0.00 | 65 | 1009.5 |
| 20260509130017 | 15 | 45 | 11.3 | 20.9 | 0.00 | 0.00 | 0.00 | 64 | 1009.3 |
| 20260509124516 | 15 | 45 | 11.3 | 17.7 | 0.00 | 0.00 | 0.00 | 63 | 1009.5 |
| 20260509123037 | 15 | 45 | 6.4 | 16.1 | 0.00 | 0.00 | 0.00 | 61 | 1009.7 |
| 20260509121516 | 15 | 90 | 8.0 | 19.3 | 0.00 | 0.00 | 0.00 | 59 | 1009.9 |
| 20260509120016 | 15 | 45 | 6.4 | 17.7 | 0.00 | 0.00 | 0.00 | 57 | 1010.1 |
| 20260509114516 | 15 | 45 | 8.0 | 17.7 | 0.00 | 0.00 | 0.00 | 56 | 1010.1 |
| 20260509113016 | 15 | 45 | 11.3 | 19.3 | 0.00 | 0.00 | 0.00 | 55 | 1010.2 |
| 20260509111516 | 15 | 45 | 8.0 | 17.7 | 0.00 | 0.00 | 0.00 | 56 | 1010.1 |
| 20260509110036 | 15 | 68 | 8.0 | 17.7 | 0.00 | 0.00 | 0.00 | 56 | 1010.6 |
| 20260509104516 | 15 | 68 | 3.2 | 16.1 | 0.00 | 0.00 | 0.00 | 55 | 1010.8 |
| 20260509103016 | 16 | 113 | 4.8 | 11.3 | 0.00 | 0.00 | 0.00 | 54 | 1010.7 |
| 20260509101515 | 16 | 45 | 3.2 | 11.3 | 0.00 | 0.00 | 0.00 | 52 | 1010.8 |
| 20260509100015 | 15 | 45 | 3.2 | 12.9 | 0.00 | 0.00 | 0.00 | 54 | 1010.7 |
| 20260509094516 | 15 | 68 | 3.2 | 11.3 | 0.00 | 0.00 | 0.00 | 55 | 1010.2 |
| 20260509093016 | 15 | 45 | 3.2 | 9.7 | 0.00 | 0.00 | 0.00 | 56 | 1010.0 |
| 20260509091516 | 15 | 23 | 4.8 | 11.3 | 0.00 | 0.00 | 0.00 | 58 | 1010.3 |
| 20260509090016 | 15 | 68 | 1.6 | 8.0 | 0.00 | 0.00 | 0.00 | 59 | 1010.4 |
| 20260509084515 | 13 | 0.0 | 4.8 | 0.00 | 0.00 | 0.00 | 67 | 1010.1 | |
| 20260509083016 | 12 | 0.0 | 3.2 | 0.00 | 0.00 | 0.00 | 70 | 1010.4 | |
| 20260509081536 | 12 | 0.0 | 8.0 | 0.00 | 0.00 | 0.00 | 72 | 1010.3 | |
| 20260509080016 | 11 | 0.0 | 4.8 | 0.00 | 0.00 | 0.00 | 75 | 1010.5 | |
| 20260509074515 | 11 | 45 | 1.6 | 4.8 | 0.00 | 0.00 | 0.00 | 77 | 1010.4 |
| 20260509073015 | 11 | 0.0 | 8.0 | 0.00 | 0.00 | 0.00 | 78 | 1010.6 | |
| 20260509071515 | 10 | 0.0 | 4.8 | 0.00 | 0.00 | 0.00 | 80 | 1010.7 | |
| 20260509070015 | 10 | 0.0 | 4.8 | 0.00 | 0.00 | 0.00 | 82 | 1010.7 | |
| 20260509064515 | 10 | 0.0 | 1.6 | 0.00 | 0.00 | 0.00 | 83 | 1010.9 |